CAPE
2074 2570 2474 1956 1327 458 453 111 5 31 614 1630 2141 1274 294 72 110 241 345 444 883 1742 2307 2883 2510 2584 2643 1873 1630 1659 1968 989 1030 1287 825 1051 1105 1094 1010 991 313 565 1076
2321 2965 2899 922 465 888 448 862 387 710 1696 2240 1774 1241 306 223 352 324 762 845 1120 1297 1308 1513 1943 1481 1807 1946 1578 1675 1790 1621 1631 1365 1881 965 765 529 654 758 791 428 462
3303 3183 2774 1470 1380 1392 1007 2402 1367 2363 2673 1668 1328 842 688 692 270 530 836 860 1217 1066 1034 1153 1073 1432 1584 471 2383 1338 1461 2063 1978 1405 1003 905 1223 936 955 1460 1176 1517 1540
3324 2915 2765 1367 2044 1507 2213 2504 2788 2906 1979 1415 1179 917 616 675 1744 1426 1532 1640 1064 936 626 705 947 917 918 1795 1209 2103 1606 1611 1372 1672 1829 950 1285 1330 1198 1926 2092 1407 1250
2989 2861 2782 1339 1904 1944 1689 1449 2975 2602 1883 1824 1433 1549 1763 1793 1467 1487 1475 1849 1246 531 473 846 1458 1365 1675 1789 1671 1451 1567 1717 1438 1409 1243 1270 1078 903 1570 809 1009 629 436
2896 2857 2491 935 1603 1590 1985 2440 2877 2288 1984 1720 1869 1779 1642 1697 1475 1822 1848 1258 386 362 635 695 790 877 1118 1549 1595 1531 1112 1329 1355 1814 826 711 1256 1622 1170 1485 695 737 147
2793 2249 1450 1106 1188 1470 2043 2468 2578 2172 1856 1585 1654 1758 1740 1807 1813 1404 943 898 227 206 768 826 892 919 1142 1153 1269 1277 1449 1312 1210 1180 1312 1067 1426 1446 1964 1840 500 523 434
2438 2367 1755 1127 1076 1066 1756 2152 2238 1940 1710 1586 1955 2342 1737 1124 847 741 459 237 706 950 452 626 592 782 942 1016 818 616 725 694 1200 1146 1313 1544 1901 1719 2348 1776 724 471 537
2878 2426 1311 1158 1071 917 1402 2329 2484 1865 1562 1835 2218 2404 1582 1014 1002 1037 1352 517 459 264 316 162 191 412 414 375 571 470 939 870 946 926 1123 1749 1995 1967 1571 1437 1266 640 395
2975 1783 1739 2473 2023 2003 2436 2619 2253 1850 1780 1913 1890 1452 1351 1053 775 480 507 574 301 444 380 70 100 101 455 729 985 541 411 319 418 519 791 1087 1491 1718 1769 1407 1470 1288 1084
1829 2221 2663 2810 3163 2899 2564 2347 2250 1902 1829 1750 1795 1400 1157 920 540 380 344 342 224 216 222 128 172 123 139 120 156 253 99 117 99 227 382 504 895 1546 1351 1577 1609 1452 1532
1776 1852 2571 2799 3001 2435 1343 1973 1904 1789 1228 1261 1334 1493 1097 723 481 346 318 262 187 197 123 163 147 80 60 67 40 20 179 13 16 17 71 178 82 366 443 406 844 1122 998
1916 1943 2365 2957 3076 1610 1632 1785 1500 917 578 925 1276 1258 1043 881 707 401 342 243 146 118 63 22 7 10 8 6 9 14 17 10 8 13 21 18 62 64 101 126 99 46 87
2239 2703 2732 3481 3072 938 1899 1844 1364 879 380 496 1127 1217 1152 1159 824 883 462 297 182 108 64 42 5 2 3 4 2 6 9 12 11 11 7 2 1 9 44 73 341 56 5
2166 2863 2969 3052 2649 625 1518 1933 1433 1032 339 1270 1296 1386 1594 1372 1427 1180 609 433 249 143 82 57 14 2 1 1 0 4 6 6 10 6 0 0 0 0 0 14 36 137 5
1832 2524 2764 3126 2057 814 1592 2010 1536 1257 1220 625 1089 1636 1850 1657 1441 1099 760 595 284 194 124 65 39 3 0 0 0 0 0 0 1 1 2 0 0 0 0 0 0 0 130
1590 1775 2420 2783 2411 1228 1556 2037 2008 1626 1376 1368 1341 1785 1817 1827 1716 1411 1142 715 576 237 129 35 60 32 0 0 0 0 0 0 0 0 1 1 0 8 1 0 0 0 0
1490 1557 2540 2692 2415 1600 1810 2014 2014 2083 1571 1719 1814 1891 2039 1942 1824 1506 1397 982 558 249 106 92 221 35 0 0 0 0 6 5 7 7 0 0 0 0 0 0 0 0 0
2662 2668 2964 2441 2650 1661 2073 1463 1359 1671 1233 1015 1417 1589 2059 2032 2005 1704 1461 1418 766 318 61 54 148 19 0 0 0 0 14 12 10 8 1 0 0 0 0 0 0 0 0
2096 2364 2854 2945 2780 2388 1892 1619 1085 656 422 665 1612 1406 1637 1991 2272 1555 1660 1600 918 328 65 128 46 3 5 0 0 0 10 3 2 3 0 0 0 0 0 2 1 1 0
1524 2326 2891 2522 2617 2112 1731 1393 975 484 995 855 910 1041 605 907 1654 1618 1805 1346 868 412 225 11 13 5 7 0 0 0 0 0 1 2 0 0 0 0 0 0 0 3 1
1339 1724 1631 1672 1764 2096 2010 1650 1353 642 511 269 559 433 588 1058 1274 1517 1834 1309 495 135 225 13 6 7 0 0 0 0 0 0 0 0 0 0 0 0 0 0 0 0 0
1319 1085 1237 1345 1183 1179 1370 1524 427 249 270 160 205 105 93 141 684 1416 640 141 6 15 42 36 12 4 4 0 0 0 0 0 0 0 0 0 0 0 0 0 0 0 0
1687 1546 1379 1301 836 688 599 562 211 81 139 168 74 33 68 90 106 247 7 1 1 2 1 9 0 4 7 4 0 0 0 0 0 0 0 0 0 0 0 0 0 0 0
1575 1428 1194 1082 838 403 198 175 38 65 104 25 10 9 13 7 4 7 5 3 0 0 0 1 0 10 13 6 1 0 0 0 0 0 0 0 0 4 13 1 0 0 0
1389 1251 1093 887 759 535 300 50 48 64 44 50 32 8 8 1 1 1 1 0 0 0 0 0 1 0 0 0 0 0 0 0 0 0 0 0 26 8 0 0 0 0 0
CIN
0 0 -115 -90 -143 -310 -132 -318 -454 -429 -124 -10 0 -1 -7 -16 -19 -25 -27 -29 -22 -1 0 0 0 0 0 0 0 0 0 0 -2 0 0 -7 -12 -4 -8 -4 0 0 -8
0 -1 -34 -197 -288 -174 -141 -127 -218 -144 -33 0 0 0 -24 -11 -2 -4 -19 -23 -4 0 -1 0 0 0 0 0 0 0 0 0 0 0 0 0 0 -25 -2 -18 -4 0 -3
-12 -9 -1 -99 -81 -38 -128 -9 -112 -27 0 0 -8 -10 -9 -8 -41 -30 -22 -26 -11 0 0 0 0 0 0 0 -4 0 0 0 -2 0 0 -1 0 -11 -8 -16 -34 -41 -4
-1 -4 -1 -157 -34 -15 -1 -1 -2 0 -11 -12 0 -2 -1 0 -1 0 0 0 0 0 0 0 0 0 0 -5 -1 -1 0 0 0 0 0 0 0 0 -2 -9 -4 -1 -1
-3 -2 -19 -85 -22 -14 -29 -42 0 0 -17 -1 -3 -1 -3 0 0 0 0 -4 -1 0 0 0 0 0 0 0 0 0 0 0 0 0 0 0 -1 0 0 -4 -1 0 -1
-17 -11 -54 -177 -107 -93 -36 0 0 -7 -2 -4 0 0 0 0 0 -1 -1 -13 0 -14 0 -1 0 0 0 0 0 0 0 0 0 0 0 0 0 0 0 0 -7 -1 -4
-50 -95 -151 -171 -157 -81 -4 0 -1 -7 -4 0 -2 0 0 0 0 -1 -2 -2 0 -3 0 0 0 0 0 0 0 0 0 0 0 0 0 0 0 0 0 -2 -15 -2 0
-68 -84 -106 -162 -166 -119 -20 -1 -1 -3 -4 0 0 0 0 -8 -41 -4 -4 -1 -2 -1 -16 0 0 0 0 0 0 0 0 0 0 0 -1 0 0 0 0 -1 -14 0 0
-61 -59 -140 -132 -131 -110 -45 0 -2 -1 0 0 0 -1 0 -11 -18 -2 0 0 -5 0 -2 -21 -25 -2 -2 -7 -1 0 0 0 0 0 0 0 0 0 -2 -3 -7 -2 0
-30 -82 -80 -45 -59 -39 -3 -11 -1 -1 -2 0 0 0 0 -4 -30 -22 -8 -9 -3 -6 -5 -25 -22 -16 -1 0 0 -3 -2 -11 0 0 0 0 0 0 0 -1 0 -1 -1
-53 -56 -21 -3 -4 -4 -1 0 0 0 0 0 -11 0 0 -6 -28 -10 -9 -20 -9 -1 -2 -6 -5 -13 -23 -40 -35 -14 -85 -68 -69 -25 0 -1 0 0 0 0 0 0 0
-40 -52 -18 -1 0 -1 -48 -4 0 0 -7 -2 -1 0 0 -5 -29 -31 -14 -12 -8 -2 -3 -4 -3 -25 -58 -74 -111 -148 -36 0 0 0 -91 -27 -77 0 0 0 0 0 0
-64 -57 -24 0 0 -48 -52 -17 -2 -1 -28 -16 0 0 0 -4 -12 -15 -5 -10 -19 -19 -7 -13 0 0 0 0 0 0 0 0 -2 0 -26 0 -82 -72 -26 -34 -12 -24 -8
-61 -40 -26 -6 -1 -121 -29 -5 -10 -2 -23 -2 0 0 0 -2 -2 0 0 -14 -26 -15 -8 -15 0 0 0 0 0 0 0 0 0 0 0 0 0 -3 -27 -20 0 -18 0
-56 -36 -53 -27 -11 -177 -43 -1 -9 -10 -46 -1 0 0 0 0 0 0 -2 -7 -19 -3 -4 -5 -3 0 0 0 0 0 0 0 0 0 0 0 0 0 0 0 0 -4 0
-53 -45 -61 -16 -21 -135 -28 -3 -10 -11 0 -3 0 0 0 0 -1 0 -6 -2 -17 -1 0 0 0 0 0 0 0 0 0 0 0 0 0 0 0 0 0 0 0 -2 0
-62 -63 -44 -8 -7 -55 -30 -2 0 0 0 0 0 0 0 0 -1 0 0 0 0 -1 -1 -1 0 -7 0 0 0 0 0 0 0 0 0 0 0 -1 0 0 0 0 0
-67 -72 -18 -5 -8 -20 -12 -9 -4 0 -1 -10 -1 0 0 0 0 -1 0 0 -1 -4 -13 -2 -2 -9 0 0 0 0 0 0 0 0 0 0 0 0 0 0 0 0 0
-55 -30 -1 -11 -1 -11 -2 -38 -24 -2 -14 -37 -3 -1 0 0 0 0 0 0 0 -3 -32 -9 -1 -17 0 0 0 0 0 0 0 0 -1 0 0 0 0 0 0 0 0
-141 -49 -1 0 0 -2 -7 -12 -33 -39 -43 -66 -11 -1 -2 0 0 -1 0 0 0 -5 -46 -2 -7 -3 -46 0 0 0 -1 0 0 0 0 0 0 0 0 0 0 0 0
-188 -54 -9 -3 -4 -23 -12 -13 -26 -42 -17 -30 -4 -8 -54 -33 -1 0 0 0 0 -5 -3 0 0 0 0 0 0 0 0 0 -1 0 0 0 0 0 0 0 0 -2 0
-177 -101 -87 -75 -58 -20 -4 -5 -8 -97 -84 -110 -42 -42 -12 0 -1 0 0 0 -14 -63 -20 -63 0 0 0 0 0 0 0 0 0 0 0 0 0 0 0 0 0 0 0
-129 -149 -120 -99 -108 -110 -63 -30 -185 -179 -151 -151 -120 -153 -110 -75 -17 0 -4 -62 -91 -135 -114 -115 0 0 0 0 0 0 0 0 0 0 0 0 0 0 0 0 0 0 0
-26 -36 -58 -82 -143 -162 -159 -160 -240 -279 -227 -175 -220 -252 -185 -134 -113 -67 -168 0 0 -1 -13 0 0 -19 0 0 0 0 0 0 0 0 0 0 0 0 0 0 0 0 0
-24 -38 -59 -96 -142 -222 -251 -244 -314 -336 -272 -309 -183 0 0 0 0 0 0 0 0 0 0 0 0 -1 -5 -2 0 0 0 0 0 0 0 0 0 0 0 -1 0 0 0
-28 -44 -61 -96 -118 -165 -217 -306 -333 -345 -372 -330 -307 0 0 0 0 0 0 0 0 0 0 0 -1 0 0 0 0 0 0 0 0 0 0 0 -1 0 0 0 0 0 0
Wind_Speed
15 14 17 15 12 9 10 7 9 5 2 3 3 5 3 3 2 4 3 7 6 10 8 6 7 6 5 6 6 8 10 7 6 7 8 5 9 10 7 7 9 10 9
12 11 17 12 7 11 8 7 9 4 6 2 3 2 5 3 1 3 5 5 8 6 3 3 6 5 4 7 8 6 6 6 6 5 5 6 8 6 9 7 7 11 7
14 9 10 16 9 14 7 9 7 5 6 4 6 6 6 5 2 3 3 5 7 4 1 3 4 4 7 8 6 5 8 7 5 9 5 4 3 3 6 7 1 6 3
14 10 10 12 15 12 11 10 10 9 7 5 5 6 2 2 2 1 0 1 4 4 3 4 5 4 8 8 6 3 5 5 7 4 6 9 4 3 2 2 4 3 4
10 10 11 10 10 7 10 10 10 9 9 6 4 5 2 3 3 1 2 4 2 3 7 4 3 5 4 6 7 6 6 4 5 6 5 4 7 8 3 2 3 7 4
11 10 10 6 6 8 9 11 11 10 10 7 5 1 2 4 3 1 3 4 1 4 5 3 4 4 4 5 4 4 4 3 4 5 5 5 3 5 6 3 6 6 5
12 12 9 7 7 10 10 11 12 11 11 9 6 5 3 3 5 3 4 5 3 3 3 3 4 3 3 3 3 4 5 4 3 4 3 5 6 5 4 4 3 3 3
12 9 7 7 11 10 9 11 11 11 11 10 6 5 5 4 5 3 4 2 1 4 4 4 5 6 7 7 5 6 5 5 6 7 3 3 5 3 5 2 5 5 3
12 10 10 10 11 11 12 12 11 12 11 10 8 6 6 3 7 4 4 3 4 2 6 4 4 6 4 2 2 5 7 7 7 7 6 5 5 3 2 2 3 5 4
11 9 10 11 12 12 10 13 13 11 13 10 9 8 7 7 6 3 4 4 4 4 6 3 4 4 6 7 8 9 9 9 8 6 8 8 6 5 4 1 4 4 3
10 9 10 10 12 11 11 11 12 10 9 8 4 9 8 7 7 4 4 6 4 4 4 3 5 5 7 6 5 8 8 8 8 8 10 8 10 6 6 4 3 3 4
7 8 9 11 12 11 6 10 10 12 11 8 5 9 8 7 7 5 5 4 4 4 4 5 6 7 8 8 8 9 9 9 8 10 10 11 9 10 9 8 8 6 4
4 6 8 7 9 6 7 9 11 12 13 10 11 10 9 8 5 6 4 4 4 4 5 5 6 7 7 8 8 8 9 8 8 8 9 9 8 8 6 6 6 8 6
5 6 7 7 9 4 7 9 10 11 12 11 10 9 10 8 7 5 5 5 4 4 4 5 5 6 6 7 7 8 8 8 10 11 12 12 11 10 7 6 8 9 9
4 6 6 8 9 6 7 8 9 10 12 10 9 8 9 8 7 5 5 5 4 4 4 4 4 4 5 7 6 6 7 8 9 10 12 12 14 16 17 8 9 7 10
3 4 7 9 10 9 7 9 9 9 13 13 9 8 8 10 8 7 6 6 4 4 3 3 3 5 7 9 10 8 7 7 7 8 8 8 12 13 13 12 15 13 8
2 2 4 7 9 9 7 8 8 8 8 10 10 9 7 9 8 8 7 7 4 4 2 2 4 6 7 6 8 11 6 6 7 6 6 7 7 7 10 8 12 14 12
2 2 4 5 9 10 7 5 6 7 6 4 7 8 9 10 9 9 9 7 7 6 4 3 4 7 6 5 7 10 5 5 6 7 8 8 7 10 8 10 10 10 11
4 5 4 5 9 8 8 6 6 8 4 3 6 9 11 10 10 9 9 10 7 7 6 5 5 6 6 1 7 9 5 5 6 7 9 7 7 10 13 8 8 8 8
6 3 4 6 6 6 4 6 6 7 4 3 10 6 9 10 10 9 9 8 9 9 7 5 6 5 7 2 5 7 3 4 4 6 7 11 8 8 10 2 4 4 4
4 5 6 6 6 6 5 6 8 8 3 3 2 1 2 3 4 9 8 10 10 8 6 8 6 7 6 6 0 7 4 3 4 3 5 6 6 7 9 9 6 4 3
6 4 6 6 4 2 3 7 7 5 4 5 1 2 2 4 5 9 8 8 8 8 7 9 8 7 6 4 5 2 6 6 6 4 4 4 2 3 6 2 3 5 7
6 6 6 6 5 3 2 1 6 3 3 3 3 3 2 4 4 5 5 6 7 6 6 8 8 7 7 6 7 5 5 5 4 4 6 8 3 2 5 2 7 7 7
7 7 6 6 5 3 2 6 6 4 4 5 4 4 2 1 3 0 5 6 6 5 2 7 6 4 6 7 8 7 6 5 5 7 5 3 4 5 0 5 8 1 5
5 5 4 5 6 3 1 3 4 5 3 3 3 4 4 3 3 4 4 3 2 2 9 8 5 7 7 5 7 4 7 7 6 7 5 6 8 9 7 4 1 2 4
5 5 5 6 6 7 4 3 4 5 4 4 5 5 6 4 4 4 3 12 8 7 9 11 2 7 10 12 12 9 8 9 10 7 8 9 8 3 3 3 4 5 2
Wind_Direction
179 163 95 93 87 164 136 206 247 36 266 262 6 131 157 186 234 241 257 251 243 246 220 223 231 233 273 254 249 239 235 271 291 316 272 258 220 245 220 233 235 220 202
162 116 119 117 175 213 203 228 170 130 230 184 131 95 137 153 46 319 300 271 261 237 259 236 231 229 260 245 254 271 274 271 251 238 259 262 246 221 238 237 225 216 228
138 163 160 134 210 218 176 224 133 190 187 148 117 119 141 123 176 242 246 227 214 204 260 286 295 296 253 272 204 245 250 259 221 222 243 283 247 244 185 203 53 24 333
148 176 163 159 182 206 158 176 163 149 142 203 134 167 189 156 83 221 284 283 4 338 314 296 295 289 300 338 321 319 273 274 266 270 261 252 265 295 233 4 77 63 22
138 167 145 165 121 158 157 165 163 153 149 160 162 196 237 134 119 34 336 297 261 330 348 343 355 333 329 294 283 278 269 252 251 244 247 238 248 241 254 172 135 95 53
130 142 131 187 129 179 155 157 149 147 153 153 127 165 134 125 125 76 263 292 284 55 339 15 3 339 314 316 308 304 265 279 242 245 229 226 239 248 227 222 165 119 68
129 135 151 194 164 179 167 150 154 157 162 169 151 142 149 81 141 217 93 290 329 36 7 11 20 340 5 359 8 4 328 8 303 244 252 229 232 261 255 230 137 137 133
137 146 145 156 173 173 168 152 160 165 168 161 138 111 155 133 116 60 358 342 121 78 357 13 25 23 18 34 29 38 357 5 17 19 357 265 275 226 238 231 144 137 126
158 150 140 157 173 176 186 151 157 173 176 152 136 168 141 134 91 104 218 115 336 123 91 37 34 34 13 45 257 51 33 20 34 18 13 19 19 9 54 128 164 144 154
146 139 155 157 163 163 150 161 174 175 164 142 162 148 144 134 120 98 47 46 52 57 58 43 51 48 46 17 20 51 36 22 21 29 28 34 23 36 44 26 128 176 144
148 161 155 165 140 163 166 173 166 155 139 157 186 142 140 130 117 124 91 64 47 39 102 95 94 81 77 59 51 95 60 35 28 13 24 21 29 48 33 55 63 105 132
143 166 169 185 161 164 135 154 165 152 155 159 153 137 142 133 121 103 84 89 70 74 67 64 64 60 59 54 59 55 67 51 39 39 39 34 38 25 22 47 53 53 78
181 166 173 182 149 134 158 163 169 170 156 163 172 157 146 129 114 128 124 123 117 86 70 70 69 64 62 66 61 60 77 77 61 43 57 50 40 53 42 51 61 59 62
163 156 176 158 175 166 165 172 176 162 164 193 169 153 140 137 150 150 159 145 111 100 90 78 78 80 76 71 69 73 66 72 79 64 53 48 40 33 52 53 75 79 75
184 140 195 185 180 165 181 171 179 169 170 182 164 162 144 156 149 166 172 147 137 106 105 109 105 100 65 47 48 79 77 71 74 81 77 65 59 50 43 49 50 99 104
190 184 174 206 184 161 185 173 182 187 177 191 184 161 183 166 157 176 183 166 148 154 152 133 114 84 71 16 9 24 75 79 76 74 80 119 100 71 56 58 53 47 87
202 213 188 206 176 174 164 186 187 197 196 192 167 163 195 166 168 171 182 167 161 163 174 143 115 87 93 20 1 339 84 88 87 73 60 74 57 76 91 94 77 59 49
353 280 196 195 169 165 159 109 173 196 213 238 182 161 187 192 178 193 166 184 156 169 185 191 104 115 88 3 338 340 99 88 79 86 80 68 68 35 44 81 71 62 49
346 335 328 186 155 161 138 162 187 191 168 73 242 189 201 193 175 191 189 178 162 169 177 181 135 140 135 5 334 330 148 101 89 61 35 85 74 11 3 95 104 105 102
353 252 224 143 127 98 162 181 185 187 192 210 270 246 219 202 177 187 199 184 171 168 182 161 161 131 145 175 346 336 224 120 96 122 111 58 50 13 7 97 114 94 80
30 17 348 119 111 143 162 178 177 181 182 238 276 244 336 340 201 202 201 180 174 167 170 170 151 177 158 163 85 357 114 165 208 116 78 69 33 25 3 351 12 37 342
89 86 76 63 59 153 240 187 184 102 75 48 201 172 332 218 220 230 200 174 164 161 175 166 177 163 171 131 157 51 33 31 102 156 116 117 108 38 4 345 9 318 295
100 105 105 99 94 66 84 162 115 157 182 180 154 85 62 322 313 220 168 155 151 169 186 183 177 167 179 153 115 119 100 101 142 162 102 116 173 231 142 281 280 278 251
138 133 124 96 93 75 88 119 134 135 166 177 165 174 205 220 309 184 157 164 167 183 180 171 174 171 185 165 172 168 163 130 151 137 148 177 255 269 61 194 233 47 14
87 81 84 83 79 86 88 142 147 144 175 179 184 188 170 167 103 45 356 202 149 199 190 181 198 190 195 165 97 132 176 182 139 137 170 202 212 209 199 151 80 82 175
117 105 107 131 153 164 164 181 153 151 183 216 213 207 180 156 155 157 112 44 36 31 58 51 46 102 76 104 98 92 83 101 140 198 191 211 220 199 145 174 148 144 168